Theta_e
311 311 312 313 315 316 316 315 315 314 314 314 314 314 314 314 312 312 311 312 312 312 313 313 312 313 314 312 311 308 312 314 313 311 313 308 310 306 303 305 303 303 303 302 303
309 309 310 310 311 312 314 315 315 315 313 315 314 314 315 314 314 311 312 312 312 313 312 312 311 312 311 313 311 312 311 313 311 309 312 310 309 308 307 305 305 302 299 300 299
309 309 308 308 309 310 311 313 314 314 314 314 314 314 315 313 315 311 312 311 311 313 313 312 311 312 312 312 311 309 310 312 312 310 310 310 309 305 307 307 307 306 301 298 297
311 310 309 308 308 308 309 311 312 313 313 313 314 314 313 314 315 313 312 311 311 312 312 311 310 312 312 314 310 315 311 311 312 311 310 310 307 308 305 310 304 303 301 297 297
312 311 310 309 308 308 308 309 310 312 312 313 314 314 314 314 312 313 313 311 310 312 311 310 311 310 314 311 311 313 312 311 310 310 309 308 309 308 306 304 301 299 297 297 297
313 312 311 310 309 308 307 308 309 311 312 313 314 314 314 314 313 314 313 311 309 312 310 310 309 309 310 313 311 310 311 310 308 309 308 309 308 308 306 298 299 298 298 297 296
314 313 312 311 309 308 307 307 308 310 311 313 313 313 313 311 313 313 311 310 309 311 309 309 310 310 309 311 309 309 311 309 308 308 309 306 309 307 306 298 299 298 298 296 296
314 313 312 312 310 308 307 307 308 309 312 313 313 315 311 313 312 313 310 309 309 310 310 309 310 308 309 307 307 311 309 312 310 308 309 308 313 309 302 300 302 298 296 296 295
314 313 312 312 310 308 307 307 308 311 313 312 314 313 312 312 312 313 310 310 309 309 309 311 309 307 308 311 311 308 311 312 310 307 309 308 312 308 300 299 302 299 297 296 296
313 312 312 310 310 308 307 308 310 312 313 313 313 313 310 312 313 313 310 309 308 309 311 310 306 310 307 310 313 310 312 309 309 309 307 307 308 309 304 301 303 302 299 296 296
311 312 311 310 310 308 307 311 307 304 309 311 312 311 311 313 313 311 309 309 309 309 311 310 313 313 311 309 311 312 311 311 308 305 306 306 308 309 308 302 304 301 300 297 296
311 310 311 310 310 308 308 306 308 307 307 307 305 306 309 313 313 311 308 309 309 309 310 312 313 311 310 309 309 308 310 309 307 305 305 305 307 307 306 308 307 305 302 299 297
310 310 310 310 310 306 307 308 309 309 308 307 307 309 310 311 311 310 306 307 309 308 310 310 311 308 310 308 309 308 308 309 310 304 302 301 303 303 304 303 304 303 302 299 298
310 310 309 311 308 308 308 307 308 309 300 303 308 311 311 309 311 307 306 307 309 309 308 310 309 310 310 311 307 311 307 307 307 306 309 303 311 304 305 306 305 304 301 301 298
311 310 309 311 312 308 307 306 307 303 303 305 309 308 308 310 307 308 306 308 308 310 310 311 308 309 310 310 307 311 303 304 304 304 302 304 304 307 301 305 307 306 300 300 298
313 311 309 310 312 310 308 306 306 302 304 304 310 310 310 309 308 307 306 305 306 310 308 309 305 306 309 303 304 302 304 302 298 300 306 308 307 305 304 305 305 304 301 298 296
313 312 310 310 311 308 306 305 303 300 302 305 310 309 310 310 310 308 307 308 309 311 311 310 307 305 305 308 305 304 309 313 310 307 312 300 303 308 305 303 304 306 303 297 294
314 312 311 309 311 312 305 306 304 302 302 308 311 309 310 308 309 308 308 308 306 309 309 311 312 305 304 308 309 304 309 313 309 308 309 299 306 308 303 305 301 299 297 294 292
314 312 311 310 310 310 302 306 303 304 303 305 311 312 311 311 310 308 307 308 308 309 314 311 311 301 302 301 304 304 307 306 307 289 301 308 305 304 302 301 299 298 293 294 292
313 311 311 312 310 310 302 304 303 304 303 308 306 307 306 309 308 309 308 307 310 307 310 311 314 304 298 298 297 302 300 306 305 308 306 309 308 308 306 305 303 302 297 295 292
313 313 311 311 311 312 312 307 302 303 305 306 305 304 305 307 309 308 309 307 308 307 307 309 312 306 300 301 302 300 301 300 303 305 308 310 309 303 305 304 304 303 299 295 293
312 315 308 310 313 312 310 305 306 305 303 305 305 304 303 305 307 307 308 309 306 305 309 308 311 314 309 297 295 300 303 304 308 307 300 304 312 305 306 303 301 302 298 296 292
314 313 306 310 314 312 307 305 306 304 304 304 305 306 304 304 307 306 307 306 305 307 307 307 311 315 311 302 298 300 299 300 301 302 308 307 310 304 302 301 299 300 297 294 292
312 312 308 307 310 313 312 310 308 305 306 303 304 304 305 305 306 307 306 306 304 306 306 309 311 314 311 308 303 303 299 301 304 309 309 309 309 309 308 307 304 299 296 294 292
314 313 306 308 310 312 312 311 312 310 305 305 305 305 305 306 305 305 305 304 302 305 305 307 311 311 312 312 307 303 304 303 303 306 308 309 307 308 308 307 307 306 306 303 291
317 314 309 311 308 310 312 313 313 313 307 307 307 304 305 306 305 306 305 304 306 298 302 301 311 309 311 309 307 308 308 308 308 306 305 306 307 307 307 306 306 307 306 305 299
314 315 311 313 311 311 311 311 312 311 310 308 307 307 307 306 306 306 306 303 304 304 301 301 304 303 311 308 307 308 308 308 308 308 308 309 308 308 307 306 306 306 305 304 304
Wind_Speed
15 16 18 19 21 22 22 23 23 22 23 15 6 2 1 2 1 3 3 3 2 2 2 3 2 5 4 3 3 3 4 1 3 5 4 4 4 1 1 4 3 4 3 1 25
14 16 17 18 19 21 22 22 22 22 23 17 11 5 4 5 4 4 4 2 1 2 2 3 2 3 3 2 3 4 3 5 4 4 3 1 4 6 4 3 4 3 3 7 34
14 15 16 17 18 19 21 22 22 21 20 19 13 6 7 5 3 5 5 1 1 1 3 3 4 3 3 1 2 2 4 4 3 4 3 1 2 6 5 5 9 10 7 16 22
13 15 15 17 18 19 20 21 22 22 20 19 12 8 4 3 5 4 5 1 1 1 3 4 4 3 3 2 1 2 1 3 2 3 3 3 4 4 8 7 1 7 13 19 19
14 15 16 17 19 20 20 21 22 22 21 18 8 4 0 1 7 3 3 2 0 1 4 3 3 4 4 2 1 3 2 3 3 4 4 1 8 6 8 9 2 6 13 17 18
16 16 17 18 19 20 21 21 22 22 22 15 6 3 2 4 3 4 4 3 1 1 3 3 5 3 5 2 3 2 3 4 4 3 3 4 4 1 4 5 5 10 15 16 17
19 18 19 20 21 22 22 22 23 22 21 11 5 4 3 11 5 4 4 4 1 2 4 3 5 1 4 3 0 1 4 4 4 3 4 6 7 10 6 4 8 11 11 12 16
19 20 19 21 23 25 25 24 24 24 14 6 2 4 6 3 5 5 5 5 4 5 7 5 5 6 2 4 5 2 3 2 3 5 2 5 9 9 4 7 11 11 10 13 17
20 20 19 21 22 25 27 26 26 16 4 1 3 4 7 2 3 6 4 4 5 6 6 5 4 3 3 4 4 5 4 4 7 8 3 6 10 6 6 7 11 11 13 14 13
20 20 20 18 19 23 26 25 14 3 2 3 2 2 1 2 3 4 5 8 3 4 3 5 5 3 3 3 6 6 4 5 6 4 5 5 17 16 8 9 18 14 13 14 16
17 19 21 17 16 19 23 8 6 4 2 6 4 4 2 2 4 3 5 6 3 4 4 2 1 9 12 8 2 3 4 8 5 4 3 9 18 18 20 9 18 14 14 15 19
16 17 19 17 13 14 9 5 3 3 7 5 5 6 6 4 2 4 8 6 4 7 5 3 11 9 5 4 5 3 3 7 7 1 5 9 19 15 17 21 16 18 16 16 12
15 17 18 15 11 5 4 3 2 0 2 8 5 4 3 8 6 6 11 4 5 6 7 8 4 4 7 4 6 5 6 5 8 5 4 6 9 7 8 11 17 15 11 11 18
14 14 16 15 3 6 2 2 1 1 3 7 4 3 3 4 4 1 7 4 2 10 9 7 2 6 4 7 8 5 5 3 4 3 4 4 14 4 7 10 10 12 9 14 15
14 13 11 9 10 1 0 0 1 1 6 4 3 1 1 4 4 1 1 2 6 7 7 7 7 4 5 8 8 7 2 3 1 3 3 4 5 4 3 7 17 11 9 9 10
13 12 9 5 3 3 3 1 1 4 8 4 3 4 3 1 1 1 1 4 1 4 3 5 2 6 6 3 1 5 3 4 3 2 2 9 10 5 6 9 8 9 6 7 8
16 11 9 7 3 1 2 1 2 5 3 4 5 3 1 5 4 5 6 5 6 4 5 1 5 2 3 4 3 3 5 4 5 2 9 5 4 13 7 10 13 13 5 7 7
21 14 12 11 6 6 4 4 9 6 7 2 3 3 7 8 5 7 6 5 7 2 2 4 9 9 6 7 7 6 8 6 9 6 21 4 8 9 15 15 8 7 7 4 7
21 20 16 19 17 6 2 6 10 9 8 9 3 4 5 4 5 5 8 7 9 15 10 7 8 2 1 3 5 6 6 4 1 2 5 6 12 6 7 14 5 12 6 10 8
24 14 13 20 21 8 2 18 8 9 7 5 14 12 9 8 8 8 10 6 6 16 10 3 6 4 3 2 1 4 4 3 2 3 7 19 29 17 12 15 12 11 14 13 7
17 3 7 29 25 3 8 9 6 7 6 8 9 6 9 9 9 7 7 4 7 4 6 5 6 3 4 9 10 3 2 0 2 5 6 15 11 7 7 11 13 13 8 10 9
6 5 17 41 8 4 14 8 8 6 4 9 5 10 11 10 8 7 10 10 9 9 10 7 5 6 14 0 2 1 7 10 6 7 4 2 30 3 4 9 7 10 8 7 9
4 3 19 26 8 10 2 4 6 8 12 11 11 8 8 8 7 10 14 7 10 10 10 8 2 4 9 2 3 6 8 7 2 2 19 7 30 6 6 6 8 9 9 8 8
4 4 3 6 7 13 15 9 8 7 17 3 5 7 4 7 13 9 4 3 6 8 4 15 9 13 21 19 5 6 9 18 20 17 13 29 36 40 32 20 13 9 10 13 12
6 4 8 7 15 18 15 8 21 11 7 11 6 20 14 11 17 19 16 9 6 5 4 10 16 16 26 31 9 1 12 13 19 28 24 33 23 36 37 22 28 20 22 16 10
7 3 4 6 15 24 23 21 29 25 11 10 19 11 23 26 25 20 16 16 15 1 7 2 15 12 26 28 12 15 29 22 29 34 26 32 35 45 29 26 28 31 27 21 17
11 12 4 9 12 14 22 29 28 24 18 23 21 18 19 25 27 30 16 4 8 8 9 7 5 6 24 20 4 6 33 28 29 37 25 30 45 40 28 25 29 27 22 23 22
Wind_Direction
8 10 11 10 8 8 8 10 11 9 7 360 346 252 144 360 208 214 209 143 118 13 20 154 66 129 106 79 79 137 70 195 231 162 256 151 162 43 68 121 239 195 170 264 169
1 360 0 1 1 0 359 0 4 4 3 356 347 267 246 322 287 256 180 128 71 51 92 103 85 120 60 73 30 82 105 207 194 210 273 218 184 178 163 160 243 251 218 158 162
356 355 353 351 351 352 352 351 353 356 357 354 343 311 247 306 323 230 184 141 18 43 71 104 99 99 86 82 7 179 163 191 231 225 206 216 253 162 159 233 222 209 172 165 169
347 349 347 345 344 344 344 343 344 347 349 350 341 326 263 274 228 179 181 191 350 45 74 75 56 76 85 98 307 111 246 189 220 213 175 209 153 229 194 232 113 225 170 168 180
336 338 339 337 337 337 337 337 336 338 340 340 332 314 130 8 262 219 217 235 298 219 57 103 61 132 131 155 135 154 214 249 259 224 243 342 243 241 242 236 194 148 162 182 188
327 326 331 331 332 331 332 333 330 331 333 330 313 238 144 242 220 209 227 219 209 156 77 60 164 191 112 138 151 179 227 258 275 244 233 214 274 61 242 130 163 175 191 192 194
326 321 322 326 328 329 328 328 326 323 326 319 294 200 137 236 203 209 205 192 125 155 119 106 132 86 136 126 142 94 328 312 225 212 228 162 284 235 228 167 196 207 205 200 203
318 318 319 320 326 330 328 327 322 318 318 307 227 182 240 232 207 204 170 134 110 91 106 112 119 107 79 121 30 75 63 13 192 171 205 148 264 267 167 171 230 221 212 208 209
321 319 315 317 322 328 325 327 317 317 315 195 185 164 268 207 195 196 191 164 124 91 85 93 65 80 48 90 2 1 248 233 303 202 142 179 269 238 173 202 246 229 219 213 213
319 321 317 318 320 327 326 327 315 326 112 130 103 23 245 231 161 169 159 152 122 114 63 50 52 73 45 104 236 223 242 250 242 215 196 207 256 269 226 210 243 235 222 211 211
315 320 321 321 324 329 333 338 9 348 26 203 192 214 212 174 167 171 160 135 99 72 178 10 125 219 212 203 203 168 199 238 243 236 213 234 253 259 274 226 247 238 224 214 218
313 318 320 322 328 328 339 75 147 166 308 264 247 277 235 175 226 212 169 157 158 197 123 35 235 215 156 169 181 170 223 261 284 266 194 273 265 264 253 261 253 248 233 220 216
306 317 321 325 332 342 22 93 103 54 220 290 216 208 202 166 218 231 157 144 158 176 187 182 222 104 147 167 167 210 198 231 239 337 242 311 265 240 271 249 267 247 239 202 210
305 313 323 333 320 347 58 44 108 148 25 268 243 267 109 138 261 179 184 145 189 206 166 234 253 159 170 221 149 237 208 230 295 21 257 2 296 223 244 265 262 261 198 217 207
312 311 321 326 306 259 176 14 314 159 292 267 204 138 95 166 125 299 242 68 189 183 135 237 164 167 190 223 159 229 116 131 116 225 15 253 273 228 8 262 263 271 217 223 206
287 314 308 282 265 271 276 278 110 49 245 289 141 177 140 182 129 112 93 39 96 144 269 258 337 172 200 56 81 138 88 60 63 88 239 232 204 161 182 211 254 266 236 210 208
259 270 287 269 207 175 217 88 37 189 286 230 201 163 195 195 205 173 168 181 179 126 236 232 210 174 165 105 32 91 65 320 311 323 256 138 213 258 233 233 222 238 244 205 207
246 241 232 245 247 225 145 66 223 205 209 57 126 124 194 162 217 177 148 214 229 119 128 199 266 181 183 196 180 172 167 171 252 267 289 146 244 274 226 245 239 246 245 225 220
231 219 214 222 219 224 136 213 205 181 193 171 117 184 230 242 195 158 208 202 203 176 194 182 267 90 279 144 154 183 190 174 68 132 294 238 261 281 226 254 247 248 235 247 223
200 204 209 214 192 179 106 236 211 193 159 155 204 186 201 203 174 189 179 194 222 200 206 202 304 197 153 135 310 179 155 90 350 267 263 270 277 272 217 235 242 248 230 227 225
192 208 192 191 166 186 220 224 233 233 168 175 210 232 211 198 204 205 220 225 205 151 162 152 175 221 128 208 167 119 234 305 209 162 209 279 273 203 208 205 218 233 235 217 215
175 210 173 160 185 198 224 191 185 217 206 250 202 216 211 195 217 226 218 222 160 151 160 196 166 243 240 8 352 246 199 178 200 239 241 161 272 21 185 217 213 237 202 219 220
210 193 177 179 205 210 264 276 225 183 198 201 220 190 195 197 243 197 233 184 161 157 165 167 188 287 267 317 9 217 199 224 318 321 233 203 261 188 130 227 218 217 241 239 229
197 172 167 217 236 223 211 224 230 217 238 219 222 181 163 225 226 257 227 170 191 205 168 167 180 205 243 260 130 182 205 218 223 245 236 236 260 275 262 274 262 249 245 230 217
215 210 171 192 226 229 222 209 234 227 215 208 250 229 215 241 239 238 247 252 205 206 190 173 225 218 239 255 248 228 252 219 221 240 239 256 250 259 271 267 271 266 267 267 215
246 192 192 195 210 218 218 229 236 242 180 209 227 204 222 231 228 251 229 229 231 91 181 215 250 235 248 253 235 244 257 257 253 253 261 267 268 260 277 283 280 274 276 275 249
244 235 202 182 204 208 213 220 230 232 236 233 221 223 225 226 225 241 257 230 220 184 186 170 196 205 250 255 224 234 245 257 267 264 258 265 263 273 273 265 261 266 269 264 265